Location: Dehesa de la Cepeda
(40.6574°N, 4.3013°W)
Time: 18:31:31
(UTC+00:00)

Explorer 7 - Pass Details

Date: 09 August 2021
Orbit: 484 x 676 km, 50.3° (Epoch: 16 September)

Event Time Altitude Azimuth Distance (km) Brightness Sun altitude
Exits shadow 02:32:29 40° 37° (NE) 723 7.8 -26.0°
Drops below altitude 10° 02:35:04 10° 52° (NE) 1,679 10.2 -25.7°
Sets 02:37:17 0° 55° (NE) 2,578 11.4 -25.5°
